OBJECT J, 42833

Orbit data source: Space-Track

You're viewing an Uncataloged Satellite

Recently launched and/or uncataloged satellites may have evolving metadata. Metadata may include but not limited to: Owner, Maufacturer, Bus, Motor, and Mission.

OBJECT J, 42833 is a satellite in SSO that was launched on Fri, 14 Jul 2017 UTC launched from the Tyuratam Missile And Space Complex (TTMTR). Unknown objects in Earth's orbit typically refer to objects detected orbiting the Earth but have not yet been identified or cataloged. These objects could be anything from previously untracked satellites, spent rocket stages, debris from satellite collisions, or even natural meteoroids temporarily captured by Earth's gravity.

Loading next visibility...
Identifier
42833, 2017-042J
Orbit
SSO
Country
Flag of TBDTBD
Related business
Manufacturer
Unknown
Mission
Non-operational spacecraft
Bus & Motor
Unknown
Mass
Unknown
Launch date (UTC)
2017-07-14 (9 years ago)
Launch vehicle
Unknown
Launch site
Tyuratam Missile And Space Complex (TTMTR)
Object type
Unknown
Shape & HBR
Unknown shape, 0.1 m
Radar Cross Section
Small (<0.1 m²)

Expand to show TLE details & history
Last TLE update: 15 hours ago

TLE from 15 hours ago
0 OBJECT J
1 42833U 17042J   26127.93925816  .00004407  00000-0  28401-3 0  9998
2 42833  97.4325 292.0941 0005405 226.2951 133.7831 15.08809618480947
Epoch: 2026-05-07T22:32Z
TLE epoch observation values (Epoch: 2026-05-07T22:32:31.905Z)
Latitude
0.00003°
Longitude
88.18295°
Altitude
545.499 km
Speed
7.588 km/s
True Right ascension
19h 28m 22s
True Declination
0° 00' 00"
Sunlit
Object was in daylight at epoch
Visualization orbit readout
Latitude
Unknown
Longitude
Unknown
Altitude
Unknown
Speed
Unknown
Apparent Right ascension
Unknown
Apparent Declination
Unknown
Sunlit
N/A
Visualization observer readout
Local Sidereal Time
21:57:13
Azimuth
Unknown
Elevation
Unknown
Doppler factor
Unknown
Orbital elements
Apogee altitude
540.556 km
Perigee altitude
533.081 km
Semi-major axis
6,914.955 km
Eccentricity
0.00054
Inclination
97.4325°
RAAN
292.0941°
Arg. of periapsis
226.2951°
True anomaly
133.8278°
Mean anomaly
133.7831°
Eccentric anomaly
133.80545°
Mean motion
3.7745 °/min
Orbital period
95.38 mins
BSTAR
0.00028401
Loading maneuver chart data...
Computing Atmospheric mass density...
Loading historical data...
Loading historical data...
Loading historical data...
Loading historical data...
Loading historical data...
Loading historical data...
Loading historical data...

Documentation

Showing up to 5 results
|